MKSRDG Weather Reports


time (UTC)temp
F
wind
direction
speed
knots
gust
knots
rain 1hr
in
rain 24hr
in
rain mn
in
humidity
%
barometer
mb
20260506003945 58 342 3.5 7.8 0.00 0.01 0.01 85 1014.5
20260506002445 58 348 5.2 8.7 0.00 0.01 0.01 85 1014.5
20260506000945 58 345 4.3 7.8 0.00 0.01 0.01 83 1014.5
20260505235445 58 331 4.3 8.7 0.00 0.01 0.01 83 1014.6
20260505233946 58 338 4.3 6.1 0.00 0.01 0.01 83 1014.7
20260505232446 58 13 2.6 5.2 0.00 0.01 0.01 84 1014.9
20260505230946 58 345 2.6 9.6 0.00 0.01 0.01 83 1014.9
20260505225446 58 346 4.3 7.0 0.00 0.01 0.01 83 1014.9
20260505223946 58 309 3.5 7.0 0.00 0.01 0.01 82 1015.0
20260505222446 57 333 4.3 7.0 0.00 0.01 0.01 84 1015.1
20260505220946 57 308 4.3 7.8 0.00 0.01 0.01 84 1015.1
20260505215446 58 350 3.5 8.7 0.00 0.01 0.01 84 1015.2
20260505213946 57 27 3.5 7.0 0.00 0.01 0.01 84 1015.2
20260505212446 57 350 4.3 7.8 0.00 0.01 0.01 85 1015.3
20260505210946 56 9 4.3 6.1 0.00 0.01 0.01 84 1015.3
20260505205446 57 324 3.5 6.1 0.00 0.01 0.01 86 1015.3
20260505203946 57 344 4.3 7.0 0.00 0.01 0.01 85 1015.3
20260505202446 57 297 3.5 7.8 0.00 0.01 0.01 84 1015.4
20260505200946 57 346 2.6 6.1 0.00 0.01 0.01 84 1015.4
20260505195446 56 314 1.7 5.2 0.00 0.01 0.01 83 1015.4
20260505193946 56 292 1.7 5.2 0.00 0.01 0.01 87 1015.5
20260505192446 55 350 2.6 5.2 0.00 0.01 0.01 90 1015.6
20260505190946 54 314 2.6 3.5 0.00 0.01 0.01 89 1015.6
20260505185446 54 351 1.7 4.3 0.00 0.01 0.01 91 1015.6
20260505183946 53 345 1.7 3.5 0.00 0.01 0.01 92 1015.5
20260505182446 52 342 2.6 5.2 0.01 0.01 0.01 93 1015.5
20260505180946 52 332 1.7 3.5 0.01 0.01 0.01 93 1015.3
20260505175446 52 339 0.9 2.6 0.01 0.01 0.01 94 1015.4
20260505173946 52 25 0.9 3.5 0.01 0.01 0.01 94 1015.4
20260505172446 51 304 0.0 1.7 0.00 0.00 0.00 94 1015.2
20260505170946 51 341 0.9 1.7 0.00 0.00 0.00 95 1015.2
20260505165446 50 340 0.9 1.7 0.00 0.00 0.00 95 1015.2
20260505163946 50 346 0.0 1.7 0.00 0.00 0.00 95 1015.2
20260505162446 50 252 0.9 1.7 0.00 0.00 0.00 95 1015.2
20260505160946 50 350 0.9 1.7 0.00 0.00 0.00 96 1015.2
20260505152446 49 275 0.9 1.7 0.00 0.00 0.00 96 1015.0
20260505150946 49 311 0.0 1.7 0.00 0.00 0.00 95 1014.9
20260505123947 49 296 0.9 1.7 0.00 0.00 0.00 95 1013.9
20260505122447 49 319 1.7 3.5 0.00 0.00 0.00 95 1013.8
20260505120947 49 333 0.9 1.7 0.00 0.00 0.00 95 1013.8
20260505115447 49 338 0.0 1.7 0.00 0.00 0.00 95 1013.7
20260505113947 49 327 0.9 1.7 0.00 0.00 0.00 95 1013.8
20260505112447 49 316 0.0 1.7 0.00 0.00 0.00 95 1013.6
20260505110947 49 355 0.9 2.6 0.00 0.00 0.00 94 1013.7
20260505100947 50 327 1.7 2.6 0.00 0.00 0.00 93 1013.3
20260505095447 50 343 1.7 2.6 0.00 0.00 0.00 93 1013.1
20260505093947 50 309 0.9 2.6 0.00 0.00 0.00 93 1013.2
20260505092447 50 277 0.9 1.7 0.00 0.00 0.00 92 1013.1
20260505090947 51 332 0.9 1.7 0.00 0.00 0.00 92 1013.0
20260505085447 51 285 0.9 3.5 0.00 0.00 0.00 91 1013.0
20260505083947 51 247 0.9 1.7 0.00 0.00 0.00 91 1013.0
20260505082447 51 262 0.9 4.3 0.00 0.00 0.00 91 1012.9
20260505080947 52 296 0.9 4.3 0.00 0.00 0.00 90 1012.9
20260505075519 52 286 0.0 1.7 0.00 0.00 0.00 91 1012.8
20260505075447 52 286 0.0 1.7 0.00 0.00 0.00 91 1012.8
20260505073947 52 316 0.0 1.7 0.00 0.00 0.00 91 1012.8
20260505072447 52 327 0.0 0.9 0.00 0.00 0.00 90 1012.7
20260505070947 53 310 0.9 1.7 0.00 0.00 0.00 90 1012.7
20260505065447 53 302 0.9 1.7 0.00 0.00 0.00 89 1012.5
20260505063947 53 272 0.9 2.6 0.00 0.00 0.00 89 1012.5
20260505062447 53 355 0.9 1.7 0.00 0.00 0.00 89 1012.4
20260505060947 53 288 0.9 2.6 0.00 0.00 0.00 89 1012.4
20260505055447 54 252 1.7 2.6 0.00 0.00 0.00 88 1012.4
20260505053947 54 271 0.9 6.1 0.00 0.00 0.00 87 1012.4
20260505052447 55 289 1.7 3.5 0.00 0.00 0.00 87 1012.3
20260505050948 55 281 0.9 2.6 0.00 0.00 0.00 89 1012.3
20260505040948 56 315 2.6 5.2 0.00 0.00 0.00 85 1011.5
20260505035448 57 342 1.7 2.6 0.00 0.00 0.00 86 1011.4
20260505033948 57 346 1.7 1.7 0.00 0.00 0.00 85 1010.9
20260505032448 58 274 2.6 6.1 0.00 0.00 0.00 83 1010.6
20260505030948 59 281 3.5 6.1 0.00 0.00 0.00 82 1010.4
20260505025448 60 290 3.5 6.1 0.00 0.00 0.00 81 1010.2
20260505023948 61 300 3.5 6.1 0.00 0.00 0.00 79 1010.1
20260505022448 62 313 3.5 4.3 0.00 0.00 0.00 81 1010.0
20260505020948 62 346 4.3 7.0 0.00 0.00 0.00 77 1010.0
20260505015448 64 5 3.5 6.1 0.00 0.00 0.00 75 1009.9
20260505013948 65 323 4.3 7.0 0.00 0.00 0.00 74 1009.9
20260505012448 65 337 4.3 7.0 0.00 0.00 0.00 73 1010.1
20260505010948 66 321 4.3 8.7 0.00 0.00 0.00 72 1010.1
20260505005448 66 350 5.2 7.8 0.00 0.00 0.00 72 1010.2